Regional Weather Roundup
Issued by NWS

Home | Current Version | Previous Version | Text Only | Print | Product List | Glossary On
Versions: 1 2 3 4 5 6 7 8 9 10 11 12 13 14 15 16 17 18 19 20 21 22 23 24 25 26 27 28 29 30 31 32 33 34 35 36 37 38 39 40 41 42 43 44 45 46 47 48 49 50
000
ASUS46 KLOX 261112
RWRCA

SOUTHERN CALIFORNIA WEATHER ROUNDUP
NATIONAL WEATHER SERVICE OXNARD CALIFORNIA
300 AM PST FRI DEC 26 2014

NOTE: "FAIR" INDICATES FEW OR NO CLOUDS BELOW 12,000 FEET WITH NO
SIGNIFICANT WEATHER AND/OR OBSTRUCTIONS TO VISIBILITY.

  -  STATIONS PRECEEDED BY AN ASTERISK (*) ARE NOT NWS OR FAA
     STATIONS AND ARE NOT SUBJECT TO NWS AND FAA QUALITY CONTROL.

CAZ041-042-087-261200-
LA AND ORANGE COUNTY COASTAL AREAS


CITY           SKY/WX    TMP DP  RH WIND       PRES   REMARKS
L.A. DOWNTOWN  CLEAR     46  23  40 CALM      29.96R
L.A. AIRPORT   CLEAR     48  22  35 E3        29.96R
LONG BEACH     CLEAR     46  26  45 CALM      29.96R

CITY           SKY/WX    TMP DP  RH WIND       PRES   REMARKS
AVALON           N/A     50 N/A N/A S2          N/A
FULLERTON      CLEAR     43  27  53 NW3       29.95R
*GETTY CENTER    N/A    N/A N/A N/A N20G31      N/A
HAWTHORNE      CLEAR     48  24  39 CALM      29.96R
*LEO CARRILLO    N/A     53  22  30 NE13G28     N/A
*LOS ALAMITOS  FAIR      41  30  66 NW1       29.96R
*REDONDO BEACH   N/A     44  26  48 CALM      29.95R
SANTA ANA      CLEAR     55  12  18 CALM      29.95R
STA MONICA APT CLEAR     53  17  24 N10G18    29.95R
*UCLA            N/A     50  18  27 NW13      29.92S

$$

CAZ547-548-048-261200-
LA COUNTY VALLEYS AND INLAND EMPIRE


CITY           SKY/WX    TMP DP  RH WIND       PRES   REMARKS
BURBANK        CLEAR     48  17  29 NW8       29.95R
VAN NUYS       CLEAR     48  20  32 N9        29.98R

CITY           SKY/WX    TMP DP  RH WIND       PRES   REMARKS
CORONA AIRPORT SUNNY     51  13  22 SE8       29.97R
*CHATSWORTH      N/A     48  22  35 NW5       30.00R
CHINO          CLEAR     40  26  57 VRB3      29.96R
MARCH AFB      CLEAR     46  12  25 NE13      29.95R
*NORTHRIDGE      N/A     48  16  27 NW3G13      N/A
ONTARIO        CLEAR     46  17  31 CALM      29.94R
*PASADENA        N/A     46  23  39 CALM        N/A
RIVERSIDE      CLEAR     51  11  20 NE12      29.97R
SAN BERNARDINO NOT AVBL
*SAN GABRIEL     N/A     40  27  59 CALM      29.94R
*SAUGUS          N/A     42  21  42 N9          N/A
*WHITEMAN AP   NOT AVBL
*WHITTIER HILL   N/A     48  15  26 E3          N/A
*WOODLAND HILL   N/A     48  18  29 NW6         N/A

$$

CAZ054-055-261200-
LA AND SAN BERNARDINO COUNTY MOUNTAINS


CITY           SKY/WX    TMP DP  RH WIND       PRES   REMARKS
*ACTON           N/A     40  16  37 NE8G22      N/A  WCI  34
*BIG BEAR AIRP SUNNY     14   9  79 CALM      29.92R
*BIG PINES       N/A     18   3  53 CALM        N/A
MT WILSON NWS    N/A     27   1  33 MISG        N/A
SANDBERG       CLEAR     31  23  72 N3        29.97R

$$

CAZ028-029-059-060-099-261200-
ANTELOPE VALLEY AND SURROUNDING AREAS


CITY           SKY/WX    TMP DP  RH WIND       PRES   REMARKS
LANCASTER      CLEAR     27  24  89 W7        30.03R WCI  19
PALMDALE       CLEAR     29  23  78 SW5       30.02R WCI  24
*POPPY PARK      N/A     30  25  81 W2          N/A

CITY           SKY/WX    TMP DP  RH WIND       PRES   REMARKS
29 PALMS       CLEAR     40  12  32 NW15      30.05R WCI  32
BARSTOW/DAGGET CLEAR     32  14  47 SW7       30.02R WCI  26
BISHOP         PTCLDY    30  11  45 N13       30.08R WCI  20
CHINA LAKE     CLEAR     38  13  35 N9        30.03R WCI  31
EDWARDS AFB    CLEAR     41  27  56 E7        29.93R
MOJAVE         FAIR      28  23  80 NW7       30.02R WCI  21
NEEDLES        CLEAR     46  11  24 N9        29.95R
VICTORVILLE      N/A     28  21  74 CALM      30.00S

$$

CAZ039-040-261200-
VENTURA AND SANTA BARBARA COUNTY COAST


CITY           SKY/WX    TMP DP  RH WIND       PRES   REMARKS
CAMARILLO      CLEAR     48  27  44 NE9       29.99S
OXNARD AIRPORT CLEAR     43  27  53 NE3       30.00R
*POINT MUGU    CLEAR     50  29  44 N7        30.00R
SBA APT/GOLETA CLEAR     44  29  55 CALM      29.99S
*SANTA BARBARA   N/A     46  28  50 CALM      30.07R
*VENTURA         N/A     41  23  47 NW3       30.05S

$$

CAZ044-045-261200-
VENTURA COUNTY VALLEYS


CITY           SKY/WX    TMP DP  RH WIND       PRES   REMARKS
*OJAI            N/A     34  28  78 CALM      29.98R
*FILLMORE        N/A     39  28  64 CALM      29.91S

$$

CAZ053-261200-
VENTURA COUNTY MOUNTAINS


CITY           SKY/WX    TMP DP  RH WIND       PRES   REMARKS
*LOCKWOOD VLY    N/A     18  16  93 MISG        N/A
*ROSE VALLEY     N/A     27  23  86 MISG        N/A

$$

CAZ034-035-036-261200-
CENTRAL COAST AND SANTA YNEZ VALLEY


CITY           SKY/WX    TMP DP  RH WIND       PRES   REMARKS
SAN LUIS OBISP CLEAR     41  29  62 E6        30.06S
SANTA MARIA    CLEAR     40  30  67 NE3       30.06R

CITY           SKY/WX    TMP DP  RH WIND       PRES   REMARKS
*CAL POLY SLO    N/A     46  30  53 N8          N/A
*LOMPOC        CLEAR     34  27  75 CALM      30.04S
*PISMO BEACH     N/A     41  31  69 NE1       30.07S
*SANTA YNEZ    FAIR      36  30  80 CALM      30.03S

$$

CAZ037-038-051-261200-
SAN LUIS OBISPO COUNTY INTERIOR AND CUYAMA VALLEY


CITY           SKY/WX    TMP DP  RH WIND       PRES   REMARKS
*CUYAMA          N/A     32  28  86 CALM      30.06R
PASO ROBLES    CLEAR     32  28  85 CALM      30.05S

$$

CAZ032-033-061-261200-
SOUTHERN DESERTS


CITY           SKY/WX    TMP DP  RH WIND       PRES   REMARKS
BLYTHE         CLEAR     45  16  31 N12       29.96R
IMPERIAL       CLEAR     40  23  50 W3        29.97R
PALM SPRINGS   CLEAR     48  14  25 W7        29.99R
THERMAL        CLEAR     51  12  21 W7        29.97R

$$

ELSEWHERE ACROSS THE WESTERN UNITED STATES AND MEXICO


CITY           SKY/WX    TMP DP  RH WIND       PRES   REMARKS
DENVER, CO     SNOW      17  15  92 N8        29.88R VSB 1/2 WCI   7
GRAND CANYON,  LGT SNOW  19  16  88 NW6       29.77R FOG     WCI  11
HONOLULU, HI   PTCLDY    68  63  83 N3        29.81S
KAHULUI, MAUI  MOCLDY    66  61  82 S9        29.81F
LAKE TAHOE, CA CLOUDY    25  11  55 NE6       30.04R WCI  18
LAS VEGAS, NV  CLEAR     43  10  26 NW18G26   29.92R WCI  35
MAMMOTH LAKES, CLOUDY    19   7  58 W12       30.04S WCI   7
MEXICO CITY, M PTCLDY    54  45  71 SE10      30.28S
PHOENIX, AZ    CLEAR     41  17  38 S5        29.88R
PORTLAND, OR   CLOUDY    43  42  97 E5        30.33R
RENO, NV       MOCLDY    30  17  58 N9        30.15R WCI  22
SALT LAKE CITY MOCLDY    23  21  92 CALM      29.88R
SAN DIEGO, CA  CLEAR     49  38  65 CALM      29.95S
SAN FRANCISCO, CLEAR     54  37  52 N23       30.12S
SAN JOSE, CA   CLEAR     42  36  79 W3        30.11S
SEATTLE, WA    CLOUDY    39  36  89 E5        30.33R
TIJUANA, MEX   CLEAR     50  25  37 E9        29.96

$$

STATION/POSITION TIME  TEMP    WIND        PRES    VSBY  WAVE
                       AIR SEA DIR/SP/G                  HT/PER
                 (UTC) (F)     (DEG/KT/KT) (MB)    (MI)  (FT/S)
POINT ARGUELLO B NOT AVBL
WEST SANTA BARBA 1100   55 61  350/ 17/ 21 1015.9R        12/11
POINT CONCEPTION NOT AVBL
EAST SANTA BARBA NOT AVBL
SANTA MONICA BAY 1100   58 63   30/ 23/ 27 1014.1F         6/ 5


USA.gov is the U.S. government's official web portal to all federal, state and local government web resources and services.